Tyler, TX

7:45 PM CDT on October 17, 2017 (GMT -0500)
Tyler Pounds

Weather History for KTYR - October, 2010

Change the Weather History Date:

Friday, October 22, 2010

  Actual Average Record
Temperature  
Mean Temperature 75 °F 65 °F  
Max Temperature 84 °F 76 °F 96 °F (1939)
Min Temperature 66 °F 54 °F 33 °F (1910)
Degree Days  
Heating Degree Days 0 3  
Month to date heating degree days 13 34  
Since 1 July heating degree days 14 39  
Cooling Degree Days 10 3  
Month to date cooling degree days 89 106  
Year to date cooling degree days 2942 2370  
Growing Degree Days 25 (Base 50)    
Moisture  
Dew Point 64 °F    
Average Humidity 71    
Maximum Humidity 97    
Minimum Humidity 44    
Precipitation  
Precipitation T in 0.18 in 2.34 in (1919)
Month to date precipitation 0.23 3.35  
Year to date precipitation 25.97 35.95  
Snow  
Snow 0.00 in - - ()
Month to date snowfall 0.0  
Since 1 July snowfall 0.0  
Since 1 September snowfall 0.0  
Snow Depth 0.00 in    
Sea Level Pressure  
Sea Level Pressure 30.01 in    
Wind  
Wind Speed 11 mph (SSE)    
Max Wind Speed 22 mph    
Max Gust Speed 28 mph    
Visibility 8 miles    
Events      
T = Trace of Precipitation, MM = Missing Value Source: NWS Daily Summary

Daily Weather History Graph

Daily Weather History Graph

Search for Another Location

Airport or City:

Trip Planner

Search our weather history database for the weather conditions in past years. The results will help you decide how hot, cold, wet, or windy it might be!

Date:

Astronomy

Oct. 22, 2010 Rise Set
Actual Time 7:30 AM CDT 6:40 PM CDT
Civil Twilight 7:05 AM CDT 7:05 PM CDT
Nautical Twilight 6:36 AM CDT 7:34 PM CDT
Astronomical Twilight 6:08 AM CDT 8:03 PM CDT
Moon 6:15 PM CDT (10/22) 7:08 AM CDT (10/22)
Length of Visible Light 12h 00m
Length of Day
11h 10m
Full, 100% of the Moon is Illuminated
Oct 22
Full
Oct 22
Full
Oct 30
Last Quarter
Nov 5
New
Nov 13
First Quarter

Hourly Weather History & Observations

Time (CDT) Temp. Heat Index Dew Point Humidity Pressure Visibility Wind Dir Wind Speed Gust Speed Precip Events Conditions
12:53 AM 72.0 °F - 53.1 °F 51% 29.97 in 10.0 mi SE 9.2 mph - N/A   Partly Cloudy
1:53 AM 70.0 °F - 55.0 °F 59% 29.97 in 10.0 mi SE 8.1 mph - N/A   Clear
2:53 AM 68.0 °F - 57.0 °F 68% 29.97 in 10.0 mi SSE 6.9 mph - N/A   Clear
3:53 AM 68.0 °F - 59.0 °F 73% 29.99 in 10.0 mi South 3.5 mph - N/A   Clear
4:53 AM 66.9 °F - 63.0 °F 87% 29.99 in 10.0 mi SSE 9.2 mph - 0.00 in   Clear
5:53 AM 66.0 °F - 64.0 °F 93% 30.01 in 9.0 mi SE 4.6 mph - 0.00 in   Clear
6:53 AM 66.0 °F - 64.0 °F 93% 30.01 in 7.0 mi SE 5.8 mph - N/A   Clear
7:38 AM 66.2 °F - 64.4 °F 94% 30.03 in 5.0 mi SSE 8.1 mph - N/A   Mostly Cloudy
7:49 AM 66.2 °F - 64.4 °F 94% 30.04 in 2.5 mi SSE 6.9 mph - N/A   Overcast
7:53 AM 66.0 °F - 64.9 °F 96% 30.02 in 2.0 mi SE 8.1 mph - N/A   Overcast
8:05 AM 66.2 °F - 66.2 °F 100% 30.04 in 1.5 mi SE 6.9 mph - N/A   Overcast
8:34 AM 66.2 °F - 66.2 °F 100% 30.04 in 1.2 mi SSE 9.2 mph - N/A   Overcast
8:53 AM 68.0 °F - 66.9 °F 96% 30.04 in 1.5 mi SSE 10.4 mph - N/A   Overcast
9:09 AM 68.0 °F - 66.2 °F 94% 30.06 in 2.5 mi SSE 9.2 mph - N/A   Overcast
9:19 AM 69.8 °F - 66.2 °F 88% 30.07 in 4.0 mi SSE 10.4 mph - N/A   Overcast
9:29 AM 69.8 °F - 66.2 °F 88% 30.07 in 4.0 mi SSE 9.2 mph - N/A   Overcast
9:53 AM 70.0 °F - 68.0 °F 93% 30.06 in 6.0 mi SSE 11.5 mph - N/A   Overcast
10:01 AM 71.6 °F - 68.0 °F 88% 30.08 in 6.0 mi SSE 8.1 mph - N/A   Overcast
10:53 AM 73.9 °F - 68.0 °F 82% 30.06 in 8.0 mi SSE 11.5 mph - N/A   Overcast
11:04 AM 73.4 °F - 68.0 °F 83% 30.07 in 8.0 mi SSE 10.4 mph - N/A   Overcast
11:53 AM 78.1 °F - 66.9 °F 68% 30.04 in 10.0 mi SSE 12.7 mph - N/A   Mostly Cloudy
12:30 PM 80.6 °F 82.7 °F 66.2 °F 61% 30.04 in 10.0 mi SSE 16.1 mph 24.2 mph N/A   Mostly Cloudy
12:53 PM 80.1 °F 81.7 °F 64.0 °F 58% 30.02 in 10.0 mi SSE 15.0 mph - N/A   Scattered Clouds
1:53 PM 82.9 °F 83.7 °F 62.1 °F 49% 29.98 in 10.0 mi SSE 13.8 mph 24.2 mph N/A   Partly Cloudy
2:53 PM 82.0 °F 83.0 °F 62.1 °F 51% 29.98 in 10.0 mi SSE 16.1 mph - N/A   Scattered Clouds
3:53 PM 84.0 °F 84.4 °F 61.0 °F 46% 29.96 in 10.0 mi SSE 16.1 mph 23.0 mph 0.00 in   Mostly Cloudy
4:53 PM 82.0 °F 83.0 °F 62.1 °F 51% 29.95 in 10.0 mi SE 17.3 mph - N/A   Partly Cloudy
5:53 PM 81.0 °F 82.2 °F 63.0 °F 54% 29.94 in 10.0 mi SE 10.4 mph - N/A   Mostly Cloudy
6:53 PM 78.1 °F - 63.0 °F 60% 29.94 in 10.0 mi SE 9.2 mph - N/A   Partly Cloudy
7:53 PM 77.0 °F - 64.0 °F 64% 29.95 in 10.0 mi SE 11.5 mph - N/A   Clear
8:53 PM 75.9 °F - 64.0 °F 67% 29.97 in 10.0 mi SSE 6.9 mph - N/A   Clear
9:53 PM 75.0 °F - 63.0 °F 66% 29.98 in 10.0 mi SSE 11.5 mph - N/A   Clear
10:53 PM 75.9 °F - 64.9 °F 69% 29.99 in 10.0 mi SSE 16.1 mph 21.9 mph N/A   Clear
11:53 PM 73.9 °F - 64.9 °F 73% 30.00 in 10.0 mi South 12.7 mph - N/A   Clear